Regional Weather Roundup
Issued by NWS

Home | Current Version | Previous Version | Text Only | Print | Product List | Glossary Off
Versions: 1 2 3 4 5 6 7 8 9 10 11 12 13 14 15 16 17 18 19 20 21 22 23 24 25 26 27 28 29 30 31 32 33 34 35 36 37 38 39 40 41 42 43 44 45 46 47 48 49 50

000
ASUS43 KBIS 031310
RWRND

NORTH DAKOTA REGIONAL WEATHER ROUNDUP
NATIONAL WEATHER SERVICE BISMARCK ND
800 AM CDT THU SEP 03 2015

NOTE: "FAIR" INDICATES FEW OR NO CLOUDS BELOW 12,000 FEET WITH NO
SIGNIFICANT WEATHER AND/OR OBSTRUCTIONS TO VISIBILITY.


NDZ001>003-009>011-017-031400-
NORTHWEST NORTH DAKOTA

CITY           SKY/WX    TMP DP  RH WIND       PRES   REMARKS
WILLISTON      PTCLDY    64  50  60 N10       29.69R
MINOT          CLOUDY    70  68  93 S3        29.68R FOG
MINOT AFB      FOG       70  70 100 SE6       29.67R VSB 1/4
$$

NDZ018>021-031>035-040>046-031400-
SOUTHWEST NORTH DAKOTA

CITY           SKY/WX    TMP DP  RH WIND       PRES   REMARKS
BISMARCK       CLEAR     67  66  97 E9        29.69R
DICKINSON      CLEAR     63  54  72 S7        29.67R
GARRISON         N/A     69  30  23 SE6       29.67R
HETTINGER ARPT CLEAR     54  51  90 CALM      29.72R
$$

NDZ004>008-012>016-024-026-027-054-031400-
NORTHEAST NORTH DAKOTA

CITY           SKY/WX    TMP DP  RH WIND       PRES   REMARKS
GRAND FORKS    CLOUDY    71  69  93 SE17      29.78R FOG
GRND FRKS AFB  CLOUDY    71  71  99 SE14      29.78R FOG
DEVILS LAKE    CLOUDY    72  64  78 SE15G21   29.72S
$$

NDZ022-023-025-028>030-036>039-047>053-031400-
SOUTHEAST NORTH DAKOTA

CITY           SKY/WX    TMP DP  RH WIND       PRES   REMARKS
FARGO          CLOUDY    73  68  84 SE13      29.79S
JAMESTOWN      CLOUDY    73  70  90 SE14      29.74S FOG
$$




USA.gov is the U.S. government's official web portal to all federal, state and local government web resources and services.